Home > Weather > Ann Arbor > Past weeks

Flag for USA Past Weather in Ann Arbor, Michigan, USA — Yesterday and Last 2 Weeks

Now
68 °F

Clear.


Feels Like: 68 °F
Forecast: 66 / 82 °F
Wind: 6 mph from North

Location: Ann Arbor Municipal Airport

Current Time: Jul 29, 2016 at 4:00:06 AM

Latest Report: Jul 29, 2016 at 2:53 AM


Visibility: 10 mi

Pressure: 29.91 "Hg

Humidity: 73%

Dew Point: 59 °F

Location of Ann ArborLocation

Past Weather in Ann Arbor — Graph

°F

Ann Arbor Temperature Yesterday

Maximum temperature yesterday: 86 °F (at 2:53 PM)
Minimum temperature yesterday: 60 °F (at 6:00 AM)
Average temperature yesterday: 73 °F

High & Low Weather Summary for the Past Weeks

 TemperatureHumidityPressure
High95 °F (Jul 23, 2:53 PM)100% (Jul 15, 11:53 PM)30.27 "Hg (Jul 15, 11:53 PM)
Low52 °F (Jul 17, 5:58 AM)32% (Jul 23, 1:53 PM)29.78 "Hg (Jul 14, 5:53 AM)
Average75 °F73%30.00 "Hg
* Reported Jul 14 2:00 AM — Jul 29 2:53 AM, Ann Arbor, Weather by CustomWeather, © 2016

Note: Actual official high and low records may vary slightly from our data, if they occured in-between our weather recording intervals... More about our weather records

Advertising

Ann Arbor Weather History for the Previous 24 Hours

Scroll right to see more
 ConditionsComfort  
Time TempWeatherWind HumidityBarometerVisibility
2:53 AM
Fri, Jul 29
68 °FClear.6 mph73%29.91 "Hg10 mi
1:53 AM71 °FClear.5 mph63%29.92 "Hg10 mi
12:53 AM72 °FClear.7 mph68%29.92 "Hg10 mi
11:53 PM
Thu, Jul 28
69 °FPassing clouds.No wind87%29.93 "Hg10 mi
10:53 PM66 °FClear.5 mph93%29.90 "Hg10 mi
9:53 PM75 °FOvercast.7 mph74%29.90 "Hg10 mi
8:53 PM80 °FThundershowers. Broken clouds.8 mph56%29.88 "Hg10 mi
7:53 PM81 °FPassing clouds.6 mph56%29.88 "Hg10 mi
6:53 PM82 °FSunny.7 mph56%29.87 "Hg10 mi
5:53 PM86 °FPassing clouds.6 mph46%29.85 "Hg10 mi
4:53 PM85 °FPartly sunny.5 mph50%29.85 "Hg10 mi
3:53 PM85 °FBroken clouds.6 mph50%29.86 "Hg10 mi
2:53 PM86 °FPassing clouds.8 mph49%29.88 "Hg10 mi
1:53 PM83 °FSunny.6 mph55%29.89 "Hg10 mi
12:53 PM81 °FSunny.6 mph60%29.90 "Hg10 mi
10:53 AM78 °FSunny.8 mph66%29.90 "Hg10 mi
9:53 AM76 °FSunny.8 mph74%29.92 "Hg10 mi
8:53 AM72 °FSunny.3 mph81%29.92 "Hg10 mi
7:53 AM69 °FSunny.No wind90%29.93 "Hg10 mi
6:53 AM64 °FClear.5 mph100%29.90 "Hg10 mi
6:04 AM60 °FFog.No wind100%29.92 "Hg1 mi
6:00 AM60 °FFog.No wind100%29.92 "Hg3 mi
4:53 AM62 °FClear.No wind100%29.89 "Hg10 mi
Weather by CustomWeather, © 2016

See weather overviewHow to use our weather pages